ORBCOMM FM113 (41185 NORAD) Tracking and Keplerian Element Data

This shows tracking and keplerian element data for the satellite.

Feedback or suggestion? Click here.




ElementValue
Catalog41185
NameORBCOMM FM113
Epoch Orbit53270
Epoch Day353.53168633
Epoch Year2025
RAAN39.9127
Inclination47.0016
Eccentricity6.92E-05
Argument of Perigee167.4235
Mean Anonmoly192.6668
Mean Motion14.58586014
Decay Rate5.46E-06
L11 41185U 15081G 25353.53168633 .00000546 00000+0 15255-3 0 9992
L22 41185 47.0016 39.9127 0000692 167.4235 192.6668 14.58586014532702



Live tracking and technical data element details for ORBCOMM FM113 (NORAD 41185). ORBCOMM FM113 can be tracked NOW for your location showing map with azimuth and elevation plus other details from your city location.







IsCatalogInMostPopularTable: catalog: 41185, numindb: 799
Update: records affected: 1



GetName: 41185 ORBCOMM FM113

Hit Count: updated at: Sat, 14 Mar 2026 03:00:11 GMT